Location: Alincthun
(50.7310°N, 1.8022°E)
Time: 08:40:58
(UTC+00:00)

Cosmos 1606 - Pass Details

Date: 17 February 2020
Orbit: 505 x 527 km, 82.5° (Epoch: 31 March)

Event Time Altitude Azimuth Distance (km) Brightness Sun altitude
Rises 06:14:15 0° 169° (S) 2,625 6.6 -8.2°
Reaches altitude 10° 06:16:28 10° 162° (SSE) 1,739 5.8 -7.9°
Maximum altitude 06:20:01 38° 93° (E) 791 4.4 -7.3°
Drops below altitude 10° 06:23:34 10° 24° (NNE) 1,742 5.6 -6.8°
Sets 06:25:47 0° 17° (NNE) 2,630 6.4 -6.4°
